This is the latest recevied weather packets stored in our database for station/object KB1QVF. If no packets are shown the sender has not sent any weather packets the latest 10 day(s).
| Time | Temp. | Humidity | Pressure | Rain* | Wind** | Luminosity | Snow |
|---|---|---|---|---|---|---|---|
| 1777908778 | 17.22° C | 34% | 1012.8 hPa | 0 mm | - | 750 W/m² | - |
| 1777908475 | 17.78° C | 33% | 1012.5 hPa | 0 mm | - | 752 W/m² | - |
| 1777908171 | 17.22° C | 32% | 1012.6 hPa | 0 mm | - | 734 W/m² | - |
| 1777907868 | 17.22° C | 34% | 1012.5 hPa | 0 mm | - | 726 W/m² | - |
| 1777907563 | 17.22° C | 33% | 1012.6 hPa | 0 mm | - | 716 W/m² | - |
| 1777907259 | 17.22° C | 33% | 1012.4 hPa | 0 mm | - | 700 W/m² | - |
| 1777906956 | 17.22° C | 34% | 1012.6 hPa | 0 mm | - | 692 W/m² | - |
| 1777906654 | 16.67° C | 36% | 1012.6 hPa | 0 mm | - | 681 W/m² | - |
| 1777906350 | 16.11° C | 35% | 1012.8 hPa | 0 mm | - | 670 W/m² | - |
| 1777906047 | 16.67° C | 34% | 1013 hPa | 0 mm | - | 668 W/m² | - |
| 1777905743 | 16.67° C | 37% | 1012.8 hPa | 0 mm | - | 651 W/m² | - |
| 1777905440 | 16.67° C | 37% | 1013.2 hPa | 0 mm | - | 639 W/m² | - |
| 1777905138 | 16.11° C | 36% | 1013.2 hPa | 0 mm | - | 628 W/m² | - |
| 1777904835 | 16.11° C | 36% | 1013.1 hPa | 0 mm | - | 616 W/m² | - |
| 1777904532 | 16.11° C | 35% | 1013.1 hPa | 0 mm | - | 605 W/m² | - |
| 1777904229 | 16.11° C | 36% | 1013.3 hPa | 0 mm | - | 591 W/m² | - |
| 1777903926 | 16.11° C | 37% | 1013.2 hPa | 0 mm | - | 578 W/m² | - |
| 1777903623 | 15.56° C | 39% | 1013.2 hPa | 0 mm | - | 567 W/m² | - |
| 1777903318 | 15° C | 40% | 1013.2 hPa | 0 mm | - | 554 W/m² | - |
| 1777903015 | 15.56° C | 41% | 1013.3 hPa | 0 mm | - | 539 W/m² | - |
| 1777902711 | 15° C | 43% | 1013.4 hPa | 0 mm | - | 528 W/m² | - |
| 1777902409 | 15° C | 40% | 1013.5 hPa | 0 mm | - | 512 W/m² | - |
| 1777902105 | 15° C | 41% | 1013.7 hPa | 0 mm | - | 497 W/m² | - |
| 1777901804 | 14.44° C | 41% | 1013.7 hPa | 0 mm | - | 483 W/m² | - |
| 1777901501 | 14.44° C | 42% | 1013.7 hPa | 0 mm | - | 469 W/m² | - |
* Rain latest hour (hover to see other rain measurements)
** Current wind speed in m/s (hover to see current wind gust speed)